Weather History for Houston, TX

Change the Weather History Date:

Wednesday, January 30, 2013

  Actual Average (KSGR) Record (KSGR)
Temperature  
Mean Temperature 48 °F -  
Max Temperature 59 °F 65 °F 82 °F (1975)
Min Temperature 37 °F 44 °F 19 °F (1966)
Degree Days  
Heating Degree Days 17    
Moisture  
Dew Point 30 °F    
Average Humidity 43    
Maximum Humidity 82    
Minimum Humidity 27    
Precipitation  
Precipitation 0.00 in - - ()
Sea Level Pressure  
Sea Level Pressure 30.04 in    
Wind  
Wind Speed 10 mph (WNW)    
Max Wind Speed 29 mph    
Max Gust Speed 37 mph    
Visibility 9 miles    
Events      
Averages and records for this station are not official NWS values.
T = Trace of Precipitation, MM = Missing Value Source: NWS Daily Summary

Daily Weather History Graph

Daily Weather History Graph

Search for Another Location

Airport:

Trip Planner

Search our weather history database for the weather conditions in past years. The results will help you decide how hot, cold, wet, or windy it might be!

Date:

Astronomy

Jan. 30, 2013 Rise Set
Actual Time 7:14 AM CST 5:59 PM CST
Civil Twilight 6:49 AM CST 6:24 PM CST
Nautical Twilight 6:20 AM CST 6:53 PM CST
Astronomical Twilight 5:52 AM CST 7:21 PM CST
Moon 9:36 PM CST (1/30) 9:03 AM CST (1/30)
Length of Visible Light 11h 35m
Length of Day
10h 45m
Waning Gibbous, 87% of the Moon is Illuminated
Jan 30
Waning Gibbous
Feb 3
Last Quarter
Feb 10
New
Feb 17
First Quarter
Feb 25
Full

Hourly Weather History & Observations

Time (CST) Temp. Windchill Dew Point Humidity Pressure Visibility Wind Dir Wind Speed Gust Speed Precip Events Conditions
12:35 AM 59.0 °F - 53.6 °F 82% 29.80 in 10.0 mi Calm Calm - N/A   Overcast
12:55 AM 59.0 °F - 53.6 °F 82% 29.80 in 10.0 mi Calm Calm - N/A   Overcast
1:15 AM 59.0 °F - 48.2 °F 67% 29.80 in 10.0 mi WNW 12.7 mph - N/A   Overcast
1:35 AM 59.0 °F - 42.8 °F 55% 29.82 in 10.0 mi WNW 8.1 mph - N/A   Overcast
1:55 AM 59.0 °F - 41.0 °F 51% 29.83 in 9.0 mi WNW 10.4 mph - N/A   Overcast
2:15 AM 59.0 °F - 39.2 °F 48% 29.83 in 10.0 mi WNW 8.1 mph - N/A   Overcast
2:35 AM 59.0 °F - 37.4 °F 45% 29.83 in 9.0 mi WNW 10.4 mph - N/A   Overcast
2:55 AM 59.0 °F - 32.0 °F 36% 29.84 in 10.0 mi WNW 11.5 mph 17.3 mph N/A   Overcast
3:35 AM 57.2 °F - 32.0 °F 38% 29.84 in 9.0 mi WNW 6.9 mph - N/A   Overcast
3:55 AM 57.2 °F - 33.8 °F 41% 29.85 in 8.0 mi WNW 5.8 mph - N/A   Overcast
4:15 AM 55.4 °F - 33.8 °F 44% 29.84 in 9.0 mi Calm Calm - N/A   Overcast
4:35 AM 57.2 °F - 32.0 °F 38% 29.86 in 9.0 mi West 6.9 mph - N/A   Overcast
4:55 AM 57.2 °F - 30.2 °F 36% 29.86 in 9.0 mi West 9.2 mph - N/A   Overcast
5:15 AM 57.2 °F - 26.6 °F 31% 29.87 in 8.0 mi West 10.4 mph - N/A   Overcast
5:35 AM 57.2 °F - 24.8 °F 29% 29.88 in 7.0 mi West 11.5 mph - N/A   Overcast
5:55 AM 57.2 °F - 24.8 °F 29% 29.89 in 6.0 mi West 10.4 mph - N/A   Haze
6:15 AM 55.4 °F - 24.8 °F 31% 29.90 in 7.0 mi West 10.4 mph - N/A   Overcast
6:35 AM 55.4 °F - 24.8 °F 31% 29.91 in 7.0 mi West 11.5 mph - N/A   Overcast
6:55 AM 55.4 °F - 23.0 °F 29% 29.92 in 7.0 mi West 13.8 mph 21.9 mph N/A   Overcast
7:15 AM 55.4 °F - 23.0 °F 29% 29.93 in 6.0 mi West 13.8 mph - N/A   Haze
7:35 AM 55.4 °F - 23.0 °F 29% 29.95 in 5.0 mi West 15.0 mph 23.0 mph N/A   Haze
7:55 AM 53.6 °F - 23.0 °F 30% 29.96 in 6.0 mi West 11.5 mph 16.1 mph N/A   Haze
8:15 AM 53.6 °F - 23.0 °F 30% 29.98 in 5.0 mi West 13.8 mph 20.7 mph N/A   Haze
8:35 AM 55.4 °F - 23.0 °F 29% 29.99 in 5.0 mi West 15.0 mph 23.0 mph N/A   Haze
8:55 AM 55.4 °F - 23.0 °F 29% 30.00 in 7.0 mi West 18.4 mph 25.3 mph N/A   Clear
9:15 AM 55.4 °F - 23.0 °F 29% 30.01 in 8.0 mi WNW 17.3 mph 32.2 mph N/A   Clear
9:35 AM 55.4 °F - 24.8 °F 31% 30.02 in 9.0 mi West 23.0 mph 35.7 mph N/A   Clear
9:55 AM 55.4 °F - 26.6 °F 33% 30.03 in 9.0 mi WNW 28.8 mph 35.7 mph N/A   Clear
10:15 AM 55.4 °F - 28.4 °F 36% 30.05 in 10.0 mi West 21.9 mph 31.1 mph N/A   Clear
10:35 AM 55.4 °F - 28.4 °F 36% 30.06 in 9.0 mi WNW 28.8 mph 36.8 mph N/A   Clear
10:55 AM 55.4 °F - 30.2 °F 38% 30.07 in 10.0 mi WNW 24.2 mph 36.8 mph N/A   Clear
11:15 AM 57.2 °F - 32.0 °F 38% 30.07 in 10.0 mi WNW 24.2 mph 32.2 mph N/A   Clear
11:35 AM 57.2 °F - 32.0 °F 38% 30.08 in 9.0 mi WNW 21.9 mph 29.9 mph N/A   Clear
11:55 AM 55.4 °F - 32.0 °F 41% 30.08 in 9.0 mi WNW 24.2 mph 31.1 mph N/A   Clear
12:15 PM 57.2 °F - 30.2 °F 36% 30.08 in 10.0 mi NW 24.2 mph 31.1 mph N/A   Clear
12:35 PM 57.2 °F - 30.2 °F 36% 30.07 in 9.0 mi WNW 26.5 mph 33.4 mph N/A   Clear
12:55 PM 57.2 °F - 28.4 °F 33% 30.06 in 10.0 mi WNW 20.7 mph 34.5 mph N/A   Clear
1:15 PM 57.2 °F - 26.6 °F 31% 30.06 in 9.0 mi NW 21.9 mph 32.2 mph N/A   Clear
1:35 PM 57.2 °F - 24.8 °F 29% 30.06 in 9.0 mi WNW 18.4 mph 32.2 mph N/A   Clear
1:55 PM 57.2 °F - 26.6 °F 31% 30.06 in 9.0 mi NW 25.3 mph 32.2 mph N/A   Clear
2:15 PM 57.2 °F - 26.6 °F 31% 30.07 in 9.0 mi NW 21.9 mph 31.1 mph N/A   Clear
2:35 PM 59.0 °F - 24.8 °F 27% 30.08 in 10.0 mi WNW 21.9 mph 32.2 mph N/A   Clear
2:55 PM 57.2 °F - 26.6 °F 31% 30.08 in 9.0 mi WNW 16.1 mph 24.2 mph N/A   Clear
3:15 PM 57.2 °F - 26.6 °F 31% 30.08 in 9.0 mi NW 21.9 mph 28.8 mph N/A   Clear
3:35 PM 57.2 °F - 24.8 °F 29% 30.08 in 10.0 mi NW 24.2 mph 28.8 mph N/A   Clear
3:55 PM 57.2 °F - 24.8 °F 29% 30.09 in 10.0 mi WNW 16.1 mph 25.3 mph N/A   Clear
4:15 PM 57.2 °F - 26.6 °F 31% 30.10 in 10.0 mi WNW 17.3 mph 24.2 mph N/A   Clear
4:35 PM 57.2 °F - 24.8 °F 29% 30.11 in 10.0 mi NW 19.6 mph 24.2 mph N/A   Clear
4:55 PM 55.4 °F - 24.8 °F 31% 30.11 in 10.0 mi NW 13.8 mph 23.0 mph N/A   Clear
5:15 PM 55.4 °F - 24.8 °F 31% 30.11 in 10.0 mi NW 16.1 mph 20.7 mph N/A   Clear
5:35 PM 53.6 °F - 24.8 °F 33% 30.12 in 10.0 mi NW 15.0 mph - N/A   Clear
5:55 PM 51.8 °F - 26.6 °F 38% 30.14 in 10.0 mi NW 8.1 mph - N/A   Clear
6:15 PM 48.2 °F - 26.6 °F 43% 30.15 in 9.0 mi NW 6.9 mph - N/A   Clear
6:35 PM 46.4 °F 42.9 °F 28.4 °F 50% 30.15 in 10.0 mi NNW 6.9 mph - N/A   Clear
6:55 PM 42.8 °F 38.6 °F 30.2 °F 61% 30.15 in 10.0 mi NNW 6.9 mph - N/A   Clear
7:15 PM 42.8 °F - 32.0 °F 66% 30.16 in 10.0 mi Calm Calm - N/A   Clear
7:35 PM 44.6 °F - 30.2 °F 57% 30.18 in 10.0 mi Calm Calm - N/A   Clear
7:55 PM 44.6 °F - 30.2 °F 57% 30.18 in 10.0 mi Calm Calm - N/A   Clear
8:15 PM 44.6 °F - 32.0 °F 61% 30.20 in 10.0 mi Calm Calm - N/A   Clear
8:35 PM 44.6 °F - 28.4 °F 53% 30.21 in 10.0 mi Calm Calm - N/A   Clear
8:55 PM 44.6 °F - 32.0 °F 61% 30.21 in 10.0 mi Calm Calm - N/A   Clear
9:15 PM 44.6 °F - 30.2 °F 57% 30.22 in 10.0 mi Calm Calm - N/A   Clear
9:35 PM 44.6 °F - 28.4 °F 53% 30.22 in 10.0 mi Calm Calm - N/A   Clear
9:55 PM 44.6 °F - 30.2 °F 57% 30.23 in 10.0 mi Calm Calm - N/A   Clear
10:15 PM 39.2 °F - 32.0 °F 75% 30.23 in 10.0 mi Calm Calm - N/A   Clear
10:35 PM 41.0 °F - 32.0 °F 70% 30.24 in 10.0 mi Calm Calm - N/A   Clear
10:55 PM 39.2 °F - 32.0 °F 75% 30.25 in 10.0 mi Calm Calm - N/A   Clear
11:15 PM 41.0 °F - 32.0 °F 70% 30.25 in 10.0 mi Calm Calm - N/A   Clear
11:35 PM 37.4 °F 32.1 °F 32.0 °F 81% 30.26 in 10.0 mi SSE 6.9 mph - N/A   Clear
11:55 PM 37.4 °F - 32.0 °F 81% 30.26 in 10.0 mi Calm Calm - N/A   Clear